{"data":{"norad_id":54199,"epoch":"2026-05-25T00:42:04.170816Z","epoch_age_seconds":62612,"freshness":"FRESH","line1":"1 54199U 22141AU  26145.02921494 -.00000662  00000+0 -23486-4 0  9999","line2":"2 54199  53.2149  11.3405 0001194 114.5473 245.5644 15.08842609197525","mean_motion":15.08842609,"eccentricity":0.0001194,"inclination_deg":53.2149,"raan_deg":11.3405,"arg_perigee_deg":114.5473,"mean_anomaly_deg":245.5644,"bstar":-2.3486e-5,"rev_number":19752,"period_min":95.437389652879,"perigee_km":538.90942034007,"apogee_km":540.56140827261,"semimajor_km":6917.8724143063,"source":"CELESTRAK","updated_at":"2026-05-25T13:38:17.685064Z"}}